Location: Gu�tanj
(46.5431°N, 14.9692°E)
Time: 16:59:53
(UTC+00:00)

USA 308 - Pass Details

Date: 03 March 2021
Orbit: 568 x 576 km, 54.0° (Epoch: 13 April)

Event Time Altitude Azimuth Distance (km) Brightness Sun altitude
Rises 18:28:08 0° 288° (WNW) 2,777 8.1 -17.8°
Reaches altitude 10° 18:30:38 10° 299° (WNW) 1,878 6.6 -18.2°
Maximum altitude 18:34:24 29° 1° (N) 1,052 4.3 -18.8°
Enters shadow 18:35:58 23° 38° (NE) 1,237 4.3 -19.1°
